�������l�o���
Date,Time,MP-1(��Sv/h),MP-2(��Sv/h),MP-3(��Sv/h),MP-4(��Sv/h),MP-5(��Sv/h),MP-6(��Sv/h),MP-7(��Sv/h),MP-8(��Sv/h),����,����(m/s),���J
2018/06/29,00:00,0.898,1.270,0.886,1.593,1.114,0.482,0.839,0.796,��,2.9,��
2018/06/29,00:10,0.898,1.267,0.888,1.593,1.112,0.483,0.838,0.794,��,4.2,��
2018/06/29,00:20,0.900,1.268,0.888,1.590,1.114,0.483,0.839,0.797,��,4.9,��
2018/06/29,00:30,0.902,1.268,0.886,1.593,1.114,0.482,0.838,0.795,��,4.7,��
2018/06/29,00:40,0.902,1.266,0.887,1.591,1.112,0.481,0.839,0.797,��,3.9,��
2018/06/29,00:50,0.898,1.270,0.887,1.590,1.111,0.483,0.839,0.796,��,3.4,��
2018/06/29,01:00,0.897,1.270,0.887,1.591,1.111,0.482,0.836,0.796,��,2.5,��
2018/06/29,01:10,0.900,1.267,0.887,1.589,1.113,0.482,0.839,0.795,��,2.0,��
2018/06/29,01:20,0.901,1.267,0.888,1.588,1.114,0.482,0.839,0.797,��,1.7,��
2018/06/29,01:30,0.900,1.268,0.885,1.588,1.115,0.484,0.838,0.794,��,1.9,��
2018/06/29,01:40,0.901,1.268,0.887,1.593,1.113,0.481,0.839,0.796,��,2.3,��
2018/06/29,01:50,0.901,1.268,0.888,1.592,1.113,0.482,0.837,0.797,��,3.0,��
2018/06/29,02:00,0.900,1.268,0.886,1.591,1.113,0.483,0.837,0.795,��,3.0,��
2018/06/29,02:10,0.900,1.268,0.886,1.591,1.112,0.483,0.840,0.796,��,2.9,��
2018/06/29,02:20,0.901,1.267,0.886,1.591,1.115,0.483,0.841,0.796,��,2.0,��
2018/06/29,02:30,0.901,1.266,0.886,1.591,1.115,0.482,0.840,0.795,��쓌,2.0,��
2018/06/29,02:40,0.899,1.268,0.887,1.590,1.113,0.482,0.838,0.794,��쓌,4.1,��
2018/06/29,02:50,0.899,1.266,0.886,1.592,1.114,0.483,0.837,0.796,��쓌,5.0,��
2018/06/29,03:00,0.899,1.266,0.887,1.592,1.112,0.484,0.838,0.795,��,5.2,��
2018/06/29,03:10,0.898,1.269,0.884,1.590,1.111,0.481,0.837,0.795,��,6.9,��
2018/06/29,03:20,0.898,1.268,0.885,1.593,1.112,0.482,0.838,0.794,��,7.6,��
2018/06/29,03:30,0.898,1.268,0.884,1.590,1.111,0.481,0.838,0.797,��쐼,6.2,��
2018/06/29,03:40,0.898,1.268,0.885,1.588,1.112,0.478,0.838,0.799,��,5.5,��
2018/06/29,03:50,0.899,1.268,0.887,1.587,1.112,0.482,0.838,0.797,��쐼,5.7,��
2018/06/29,04:00,0.899,1.265,0.886,1.589,1.114,0.482,0.838,0.794,��,2.5,��
2018/06/29,04:10,0.897,1.266,0.885,1.589,1.112,0.483,0.839,0.795,��쐼,4.4,��
2018/06/29,04:20,0.900,1.267,0.886,1.590,1.112,0.482,0.838,0.795,��쐼,5.3,��
2018/06/29,04:30,0.898,1.266,0.886,1.587,1.112,0.481,0.838,0.795,��쐼,6.3,��
2018/06/29,04:40,0.897,1.267,0.886,1.589,1.110,0.481,0.838,0.796,��쐼,6.0,��
2018/06/29,04:50,0.897,1.266,0.887,1.589,1.111,0.483,0.839,0.795,��쐼,5.6,��
2018/06/29,05:00,0.901,1.267,0.885,1.589,1.113,0.482,0.838,0.796,��쐼,4.2,��
2018/06/29,05:10,0.897,1.266,0.885,1.588,1.110,0.483,0.836,0.796,��,4.3,��
2018/06/29,05:20,0.900,1.268,0.883,1.591,1.110,0.482,0.837,0.796,��,5.4,��
2018/06/29,05:30,0.899,1.267,0.885,1.591,1.112,0.482,0.840,0.796,��쐼,5.7,��
2018/06/29,05:40,0.895,1.265,0.884,1.589,1.110,0.480,0.838,0.796,��,5.5,��
2018/06/29,05:50,0.897,1.265,0.881,1.590,1.112,0.481,0.839,0.796,��,4.6,��
2018/06/29,06:00,0.897,1.268,0.883,1.586,1.112,0.480,0.837,0.796,��,6.5,��
2018/06/29,06:10,0.897,1.267,0.882,1.587,1.112,0.481,0.840,0.796,��,5.7,��
2018/06/29,06:20,0.899,1.264,0.883,1.590,1.110,0.481,0.837,0.795,��,5.4,��
2018/06/29,06:30,0.899,1.266,0.884,1.588,1.110,0.479,0.836,0.796,��,6.7,��
2018/06/29,06:40,0.897,1.266,0.883,1.589,1.113,0.480,0.839,0.794,��,5.1,��
2018/06/29,06:50,0.898,1.267,0.884,1.587,1.112,0.479,0.837,0.794,��,3.9,��
2018/06/29,07:00,0.898,1.265,0.886,1.587,1.112,0.479,0.839,0.794,��쐼,5.2,��
2018/06/29,07:10,0.898,1.265,0.883,1.590,1.117,0.482,0.837,0.797,�쐼,4.6,��
2018/06/29,07:20,0.897,1.266,0.884,1.589,1.115,0.480,0.839,0.794,��쐼,4.7,��
2018/06/29,07:30,0.897,1.267,0.885,1.589,1.114,0.479,0.840,0.796,��쐼,5.0,��
2018/06/29,07:40,0.897,1.266,0.886,1.588,1.113,0.482,0.838,0.794,�쐼,4.6,��
2018/06/29,07:50,0.895,1.263,0.884,1.590,1.113,0.482,0.840,0.795,���쐼,4.0,��
2018/06/29,08:00,0.896,1.264,0.886,1.590,1.112,0.484,0.837,0.795,��쐼,3.5,��
2018/06/29,08:10,0.898,1.266,0.885,1.593,1.113,0.483,0.838,0.794,��쐼,4.7,��
2018/06/29,08:20,0.897,1.265,0.884,1.590,1.115,0.484,0.838,0.794,��,4.1,��
2018/06/29,08:30,0.896,1.268,0.884,1.593,1.115,0.485,0.839,0.795,��쐼,3.4,��
2018/06/29,08:40,0.896,1.268,0.886,1.591,1.117,0.483,0.840,0.795,�쐼,5.8,��
2018/06/29,08:50,0.898,1.268,0.888,1.595,1.118,0.482,0.839,0.797,�쐼,6.4,��
2018/06/29,09:00,0.896,1.271,0.888,1.593,1.118,0.485,0.841,0.797,�쐼,5.2,��
2018/06/29,09:10,0.895,1.267,0.888,1.592,1.120,0.483,0.842,0.796,��쐼,6.5,��
2018/06/29,09:20,0.901,1.270,0.889,1.593,1.120,0.485,0.840,0.795,��쐼,6.1,��
2018/06/29,09:30,0.899,1.270,0.887,1.596,1.120,0.485,0.839,0.795,��,5.7,��
2018/06/29,09:40,0.900,1.273,0.888,1.595,1.121,0.485,0.841,0.794,��,7.0,��
2018/06/29,09:50,0.900,1.272,0.888,1.595,1.121,0.485,0.840,0.797,��,7.6,��
2018/06/29,10:00,0.902,1.274,0.888,1.593,1.122,0.484,0.840,0.796,��,6.8,��
2018/06/29,10:10,0.900,1.274,0.887,1.595,1.124,0.484,0.841,0.797,��쓌,7.2,��
2018/06/29,10:20,0.898,1.272,0.887,1.594,1.123,0.484,0.838,0.796,��쓌,7.5,��
2018/06/29,10:30,0.900,1.274,0.887,1.596,1.124,0.483,0.839,0.795,��쓌,8.9,��
2018/06/29,10:40,0.898,1.276,0.881,1.594,1.123,0.484,0.839,0.796,��쓌,9.4,��
2018/06/29,10:50,0.899,1.274,0.882,1.598,1.124,0.483,0.839,0.797,��쓌,8.2,��
2018/06/29,11:00,0.897,1.276,0.885,1.598,1.127,0.483,0.842,0.796,��,7.5,��
2018/06/29,11:10,0.900,1.276,0.888,1.599,1.125,0.482,0.843,0.796,��,8.7,��
2018/06/29,11:20,0.904,1.277,0.889,1.597,1.124,0.481,0.844,0.798,��,11.4,��
2018/06/29,11:30,0.901,1.275,0.889,1.594,1.124,0.482,0.842,0.796,��,10.2,��
2018/06/29,11:40,0.905,1.277,0.887,1.598,1.124,0.480,0.842,0.799,��,11.6,��
2018/06/29,11:50,0.903,1.278,0.888,1.596,1.125,0.482,0.842,0.796,��,14.6,��
2018/06/29,12:00,0.904,1.277,0.889,1.595,1.122,0.481,0.843,0.795,��,14.2,��
2018/06/29,12:10,0.903,1.276,0.891,1.600,1.125,0.481,0.843,0.798,��,13.3,��
2018/06/29,12:20,0.903,1.279,0.890,1.596,1.125,0.480,0.841,0.797,��쓌,14.9,��
2018/06/29,12:30,0.900,1.279,0.890,1.599,1.126,0.481,0.844,0.797,��,11.9,��
2018/06/29,12:40,0.902,1.278,0.892,1.598,1.128,0.482,0.843,0.797,��,11.6,��
2018/06/29,12:50,0.899,1.281,0.890,1.598,1.128,0.481,0.842,0.797,��,13.0,��
2018/06/29,13:00,0.901,1.279,0.891,1.600,1.131,0.481,0.843,0.796,��,13.1,��
2018/06/29,13:10,0.898,1.281,0.891,1.599,1.130,0.482,0.842,0.798,��,12.5,��
2018/06/29,13:20,0.903,1.282,0.891,1.600,1.128,0.482,0.844,0.795,��,12.4,��
2018/06/29,13:30,0.903,1.280,0.890,1.600,1.131,0.483,0.842,0.797,��,13.0,��
2018/06/29,13:40,0.905,1.282,0.891,1.599,1.131,0.481,0.843,0.799,��,12.7,��
2018/06/29,13:50,0.902,1.279,0.892,1.601,1.132,0.480,0.843,0.798,��,13.5,��
2018/06/29,14:00,0.905,1.280,0.891,1.601,1.130,0.481,0.844,0.798,��,12.5,��
2018/06/29,14:10,0.904,1.284,0.892,1.601,1.128,0.483,0.845,0.797,��,12.4,��
2018/06/29,14:20,0.905,1.285,0.893,1.604,1.130,0.481,0.844,0.797,��,12.4,��
2018/06/29,14:30,0.906,1.285,0.891,1.602,1.130,0.480,0.846,0.797,��,12.5,��
2018/06/29,14:40,0.905,1.282,0.892,1.606,1.130,0.481,0.846,0.800,��,12.0,��
2018/06/29,14:50,0.903,1.279,0.893,1.604,1.131,0.482,0.845,0.799,��,11.8,��
2018/06/29,15:00,0.903,1.282,0.897,1.606,1.131,0.481,0.845,0.799,��,11.7,��
2018/06/29,15:10,0.905,1.286,0.893,1.606,1.132,0.481,0.846,0.797,��,13.6,��
2018/06/29,15:20,0.905,1.285,0.897,1.606,1.130,0.481,0.846,0.799,��,14.4,��
2018/06/29,15:30,0.905,1.283,0.896,1.608,1.134,0.482,0.846,0.800,��,13.1,��
2018/06/29,15:40,0.907,1.285,0.895,1.606,1.131,0.483,0.847,0.799,��,11.0,��
2018/06/29,15:50,0.906,1.285,0.896,1.609,1.134,0.481,0.846,0.797,��,12.8,��
2018/06/29,16:00,0.903,1.282,0.895,1.608,1.134,0.481,0.846,0.798,��,10.7,��
2018/06/29,16:10,0.906,1.285,0.895,1.606,1.134,0.481,0.846,0.797,��,10.3,��
2018/06/29,16:20,0.905,1.285,0.899,1.609,1.135,0.482,0.845,0.798,��,11.6,��
2018/06/29,16:30,0.905,1.287,0.896,1.606,1.134,0.482,0.846,0.799,��,13.3,��
2018/06/29,16:40,0.906,1.285,0.897,1.606,1.134,0.482,0.846,0.798,��,13.3,��
2018/06/29,16:50,0.907,1.287,0.893,1.609,1.133,0.481,0.844,0.798,��,13.0,��
2018/06/29,17:00,0.906,1.285,0.895,1.609,1.135,0.481,0.844,0.799,��,12.7,��
2018/06/29,17:10,0.905,1.284,0.893,1.607,1.132,0.480,0.844,0.798,��,11.6,��
2018/06/29,17:20,0.904,1.288,0.894,1.607,1.133,0.483,0.844,0.798,��,10.5,��
2018/06/29,17:30,0.905,1.285,0.895,1.608,1.133,0.483,0.844,0.796,��,11.3,��
2018/06/29,17:40,0.905,1.285,0.894,1.609,1.132,0.481,0.844,0.798,��,11.1,��
2018/06/29,17:50,0.905,1.284,0.895,1.607,1.133,0.481,0.842,0.799,��,12.4,��
2018/06/29,18:00,0.905,1.284,0.894,1.610,1.132,0.482,0.841,0.797,��,10.7,��
2018/06/29,18:10,0.905,1.282,0.894,1.604,1.131,0.481,0.843,0.797,��,10.9,��
2018/06/29,18:20,0.902,1.282,0.893,1.606,1.132,0.482,0.841,0.798,��,10.5,��
2018/06/29,18:30,0.902,1.283,0.893,1.603,1.134,0.480,0.842,0.796,��,9.8,��
2018/06/29,18:40,0.905,1.284,0.892,1.602,1.130,0.480,0.843,0.799,��,9.9,��
2018/06/29,18:50,0.903,1.282,0.892,1.603,1.129,0.480,0.842,0.798,��,8.1,��
2018/06/29,19:00,0.903,1.284,0.894,1.604,1.134,0.481,0.843,0.797,��,8.6,��
2018/06/29,19:10,0.901,1.283,0.896,1.605,1.131,0.481,0.843,0.799,��,7.8,��
2018/06/29,19:20,0.904,1.283,0.897,1.605,1.133,0.482,0.841,0.798,��,7.9,��
2018/06/29,19:30,0.901,1.280,0.894,1.606,1.133,0.480,0.843,0.798,��,8.0,��
2018/06/29,19:40,0.901,1.283,0.894,1.604,1.135,0.480,0.843,0.800,��,7.3,��
2018/06/29,19:50,0.903,1.284,0.891,1.602,1.134,0.482,0.842,0.797,��,7.8,��
2018/06/29,20:00,0.902,1.283,0.896,1.601,1.135,0.482,0.841,0.796,��,6.0,��
2018/06/29,20:10,0.903,1.285,0.894,1.604,1.134,0.483,0.841,0.797,��,4.5,��
2018/06/29,20:20,0.905,1.285,0.893,1.605,1.130,0.482,0.840,0.798,��쐼,5.3,��
2018/06/29,20:30,0.903,1.282,0.893,1.606,1.134,0.483,0.840,0.797,��쐼,4.1,��
2018/06/29,20:40,0.901,1.282,0.894,1.606,1.134,0.484,0.841,0.796,��쐼,3.5,��
2018/06/29,20:50,0.902,1.284,0.893,1.604,1.132,0.481,0.840,0.796,��쐼,2.8,��
2018/06/29,21:00,0.904,1.284,0.893,1.608,1.133,0.483,0.840,0.797,��,2.0,��
2018/06/29,21:10,0.905,1.284,0.893,1.608,1.131,0.481,0.842,0.797,�k��,5.7,��
2018/06/29,21:20,0.905,1.283,0.896,1.609,1.134,0.483,0.841,0.800,�k��,6.2,��
2018/06/29,21:30,0.903,1.283,0.895,1.607,1.131,0.481,0.841,0.798,�k��,6.0,��
2018/06/29,21:40,0.904,1.283,0.894,1.605,1.132,0.483,0.842,0.799,�k��,5.9,��
2018/06/29,21:50,0.903,1.284,0.894,1.606,1.133,0.480,0.841,0.799,�k��,6.0,��
2018/06/29,22:00,0.903,1.285,0.894,1.606,1.132,0.481,0.841,0.798,�k��,6.0,��
2018/06/29,22:10,0.902,1.283,0.894,1.606,1.133,0.480,0.842,0.796,�k�k��,4.9,��
2018/06/29,22:20,0.902,1.283,0.895,1.605,1.131,0.482,0.839,0.798,�k�k��,4.2,��
2018/06/29,22:30,0.903,1.285,0.896,1.606,1.130,0.481,0.843,0.797,�k��,4.4,��
2018/06/29,22:40,0.903,1.284,0.894,1.604,1.130,0.481,0.842,0.795,�k��,4.2,��
2018/06/29,22:50,0.903,1.283,0.896,1.606,1.132,0.482,0.839,0.799,�k��,3.0,��
2018/06/29,23:00,0.904,1.285,0.893,1.606,1.134,0.481,0.841,0.797,�k��,3.0,��
2018/06/29,23:10,0.901,1.284,0.895,1.606,1.131,0.481,0.841,0.797,�k��,2.3,��
2018/06/29,23:20,0.902,1.281,0.894,1.607,1.130,0.482,0.843,0.798,���k��,1.7,��
2018/06/29,23:30,0.903,1.283,0.892,1.604,1.131,0.482,0.841,0.798,���k��,1.7,��
2018/06/29,23:40,0.903,1.284,0.894,1.607,1.134,0.482,0.843,0.797,�k��,1.7,��
2018/06/29,23:50,0.902,1.281,0.894,1.606,1.133,0.482,0.841,0.798,�k��,1.7,��
